Regional Weather Roundup
Issued by NWS

Home | Current Version | Previous Version | Graphics & Text | Print | Product List | Glossary On
Versions: 1 2 3 4 5 6 7 8 9 10 11 12 13 14 15 16 17 18 19 20 21 22 23 24 25 26 27 28 29 30 31 32 33 34 35 36 37 38 39 40 41 42 43 44 45 46 47 48 49 50
000
ASUS43 KDTX 231010
RWRMI
MICHIGAN HOURLY REGIONAL WEATHER ROUNDUP
NATIONAL WEATHER SERVICE DETROIT/PONTIAC MI
600 AM EDT SAT AUG 23 2014

NOTE: "FAIR" INDICATES FEW OR NO CLOUDS BELOW 12,000 FEET WITH NO
SIGNIFICANT WEATHER AND/OR OBSTRUCTION TO VISIBILITY.

MIZ047>049-052>055-059>063-066>070-074>076-081>083-231100-
SOUTHEAST LOWER MICHIGAN

CITY           SKY/WX    TMP DP  RH WIND       PRES   REMARKS
ADRIAN         CLEAR     66  62  87 NE5       30.03R
ALMA           FOG       61  60  97 CALM      30.05R VSB 1/4
ANN ARBOR      CLOUDY    69  61  75 NE6       30.02R
BAD AXE        FOG       61  61 100 N5        30.06R VSB 1/2
DETROIT CITY   CLOUDY    66  62  87 NE6       30.02S
DETROIT        MOCLDY    69  60  73 NE8       30.02R
FLINT          CLEAR     64  60  87 N5        30.04R
GROSSE ILE     MOCLDY    70  64  83 NE5       30.00S
HILLSDALE      CLEAR     66  66  98 CALM      30.03R
HOWELL         CLEAR     64  62  95 N3        30.03S

CITY           SKY/WX    TMP DP  RH WIND       PRES   REMARKS
JACKSON        CLOUDY    69  66  90 CALM      30.03R
LAMBERTVILLE   CLEAR     68  63  83 CALM      30.01S
LANSING        PTCLDY    65  63  93 NE5       30.04R
LAPEER         NOT AVBL
MASON          CLOUDY    67  64  91 NE3       30.03R
MONROE         PTCLDY    66  64  94 CALM      30.00R
MT. CLEMENS    FOG       64  64  99 N6        30.02R VSB 1
PONTIAC        CLEAR     64  61  90 CALM      30.03R
PORT HOPE        N/A     63  61  93 N5        30.04R
PORT HURON     FOG       64  64 100 CALM      30.03R VSB 1
TRI CITIES     CLEAR     63  61  93 NE8       30.05R
YPSILANTI      CLOUDY    71  62  73 N5        30.03R
$$
MIZ043>046-050>051-056>058-064>065-071>073-077>080-231100-
SOUTHWEST LOWER MICHIGAN

CITY           SKY/WX    TMP DP  RH WIND       PRES   REMARKS
BATTLE CREEK   CLOUDY    71  68  90 E3        30.02S FOG
BENTON HARBOR  PTCLDY    69  69 100 E3        29.98S FOG
BIG RAPIDS     CLOUDY    62  62 100 E5        30.04S
COLDWATER      CLOUDY    72  70  95 SE5       30.01R FOG
HOLLAND        PTCLDY    68  66  93 E5        30.01R
GRAND RAPIDS   PTCLDY    67  67 100 E6        30.02R
KALAMAZOO      FOG       70  69  97 CALM      30.01S VSB 1/4
MARSHALL       CLOUDY    69  67  96 CALM      30.02R FOG
MUSKEGON       CLEAR     68  63  84 E5        30.01R
$$
MIZ016>042-231100-
NORTHERN LOWER MICHIGAN

CITY           SKY/WX    TMP DP  RH WIND       PRES   REMARKS
ALPENA         MOCLDY    56  55  97 CALM      30.07S FOG
BEAVER ISLAND  CLOUDY    67  64  90 E6        30.06S
BELLAIRE         N/A     63  61  94 CALM      30.05R FOG
CADILLAC       PTCLDY    61  61 100 E3        30.06R
CHARLEVOIX     CLOUDY    67  65  93 SE3       30.08S
FRANKFORT      MOSUNNY   70  61  73 CALM      30.02S
GAYLORD        CLEAR     62  60  93 CALM      30.08S
GRAYLING       CLEAR     60  60 100 CALM      30.08S FOG
HARBOR SPRINGS CLEAR     63  61  94 NE3       30.06S
HOUGHTON LAKE  MOCLDY    56  56 100 CALM      30.08R FOG
MANISTEE       MOCLDY    63  61  94 E5        30.03R
OSCODA         FOG       62  62 100 NW5       30.06S VSB 1/2
PELLSTON       MOCLDY    59  59 100 CALM      30.07R FOG
TRAVERSE CITY  CLOUDY    67  63  87 CALM      30.04R
$$
MIZ007>008-015-231100-
EASTERN UPPER MICHIGAN

CITY           SKY/WX    TMP DP  RH WIND       PRES   REMARKS
KINROSS        CLEAR     63  63 100 E6        30.08R
MACKINAC ISLAN CLEAR     61  61 100 E5        30.08R FOG
NEWBERRY       CLOUDY    61  60  97 CALM      30.07S FOG
S. S. MARIE    CLEAR     62  60  93 NE3       30.07F FOG
$$
MIZ004>006-011>014-085-231100-
CENTRAL UPPER MICHIGAN

CITY           SKY/WX    TMP DP  RH WIND       PRES   REMARKS
MANISTIQUE     CLOUDY    67  64  88 E9        30.04S
ESCANABA       CLOUDY    66  64  94 E6        30.03R
MENOMINEE      CLOUDY    66  64  94 CALM      30.01S
SAWYER-GWINN   CLOUDY    65  64  95 CALM      30.05S
$$
MIZ001>003-009>011-084-231100-
WESTERN UPPER MICHIGAN

CITY           SKY/WX    TMP DP  RH WIND       PRES   REMARKS
IRON MOUNTAIN  CLOUDY    67  65  93 SE5       30.02F FOG
HOUGHTON       FOG       63  61  93 E8        30.04S VSB 1/4
COPPER HARBOR    N/A     54  52  93 CALM      30.05S
$$

ABBREVIATIONS USED IN REMARKS
   TC - TEMPERATURE IN CELSIUS
  WCI - WIND CHILL INDEX
   HX - HEAT INDEX
  VSB - VISIBILITY



USA.gov is the U.S. government's official web portal to all federal, state and local government web resources and services.